• In Portugal
  • List of Countries
  • For 7 days
  • Water Temperature
  • Satellite Maps
  • Weather Map
  • Weather Widgets
  • user-avatar
    Login

    Hourly Weather Sabha

    Today, 26 September, Wednesday

    Time Temperature Precipitation Wind Pressure Humidity
    00:00 +33°C° 0 mm 5 mps 725 mmHg 28%
    01:00 +33°C° 0 mm 5 mps 725 mmHg 30%
    02:00 +32°C° 0 mm 5 mps 724 mmHg 32%
    03:00 +30°C° 0 mm 4 mps 724 mmHg 33%
    04:00 +30°C° 0 mm 4 mps 724 mmHg 34%
    05:00 +30°C° 0 mm 4 mps 724 mmHg 35%
    06:00 +30°C° 0 mm 4 mps 724 mmHg 35%
    07:00 +29°C° 0 mm 4 mps 724 mmHg 35%
    08:00 +32°C° 0 mm 4 mps 725 mmHg 32%
    09:00 +34°C° 0 mm 5 mps 725 mmHg 29%
    10:00 +36°C° 0 mm 5 mps 725 mmHg 26%
    11:00 +36°C° 0 mm 4 mps 725 mmHg 25%
    12:00 +37°C° 0 mm 3 mps 725 mmHg 23%
    13:00 +38°C° 0 mm 2 mps 724 mmHg 22%
    14:00 +38°C° 0 mm 2 mps 724 mmHg 22%
    15:00 +38°C° 0 mm 3 mps 723 mmHg 22%
    16:00 +38°C° 0 mm 4 mps 723 mmHg 22%
    17:00 +36°C° 0 mm 5 mps 723 mmHg 26%
    18:00 +35°C° 0 mm 7 mps 723 mmHg 30%
    19:00 +33°C° 0 mm 8 mps 723 mmHg 34%
    20:00 +32°C° 0.2 mm 8 mps 723 mmHg 36%
    21:00 +32°C° 0.2 mm 7 mps 723 mmHg 37%
    22:00 +30°C° 0.2 mm 7 mps 724 mmHg 38%
    23:00 +29°C° 1.1 mm 8 mps 724 mmHg 44%

    Tomorrow, 27 September, Thursday

    Time Temperature Precipitation Wind Pressure Humidity
    00:00 +28°C° 1.1 mm 9 mps 724 mmHg 49%
    01:00 +27°C° 1.1 mm 9 mps 724 mmHg 54%
    02:00 +27°C° 0.1 mm 8 mps 724 mmHg 55%
    03:00 +27°C° 0.1 mm 7 mps 723 mmHg 55%
    04:00 +27°C° 0.1 mm 6 mps 723 mmHg 56%
    05:00 +27°C° 0.1 mm 5 mps 723 mmHg 55%
    06:00 +27°C° 0.1 mm 5 mps 723 mmHg 55%
    07:00 +26°C° 0.1 mm 5 mps 724 mmHg 55%
    08:00 +27°C° 0 mm 5 mps 724 mmHg 53%
    09:00 +28°C° 0 mm 5 mps 725 mmHg 50%
    10:00 +29°C° 0 mm 5 mps 725 mmHg 47%
    11:00 +29°C° 0 mm 5 mps 725 mmHg 45%
    12:00 +30°C° 0 mm 5 mps 725 mmHg 42%
    13:00 +32°C° 0 mm 5 mps 724 mmHg 39%
    14:00 +32°C° 0 mm 5 mps 724 mmHg 39%
    15:00 +30°C° 0 mm 6 mps 724 mmHg 39%
    16:00 +30°C° 0 mm 6 mps 723 mmHg 40%
    17:00 +29°C° 0.1 mm 6 mps 723 mmHg 38%
    18:00 +29°C° 0.1 mm 6 mps 724 mmHg 37%
    19:00 +28°C° 0.1 mm 6 mps 724 mmHg 35%
    20:00 +28°C° 0 mm 6 mps 724 mmHg 35%
    21:00 +27°C° 0 mm 6 mps 725 mmHg 34%
    22:00 +27°C° 0 mm 6 mps 725 mmHg 34%
    23:00 +26°C° 0 mm 6 mps 725 mmHg 36%

    Day after tomorrow, 28 September, Friday

    Time Temperature Precipitation Wind Pressure Humidity
    00:00 +24°C° 0 mm 6 mps 724 mmHg 39%
    01:00 +24°C° 0 mm 6 mps 724 mmHg 42%
    02:00 +23°C° 0 mm 6 mps 724 mmHg 43%
    03:00 +23°C° 0 mm 5 mps 724 mmHg 45%
    04:00 +22°C° 0 mm 5 mps 723 mmHg 46%
    05:00 +22°C° 0 mm 5 mps 724 mmHg 47%
    06:00 +22°C° 0 mm 4 mps 724 mmHg 48%
    07:00 +21°C° 0 mm 4 mps 725 mmHg 48%
    08:00 +22°C° 0 mm 4 mps 725 mmHg 45%
    09:00 +23°C° 0 mm 4 mps 726 mmHg 42%
    10:00 +25°C° 0 mm 4 mps 726 mmHg 39%
    11:00 +26°C° 0 mm 3 mps 726 mmHg 36%
    12:00 +27°C° 0 mm 2 mps 725 mmHg 33%
    13:00 +28°C° 0 mm 2 mps 725 mmHg 30%
    14:00 +28°C° 0 mm 2 mps 724 mmHg 29%
    15:00 +28°C° 0 mm 2 mps 724 mmHg 27%
    16:00 +29°C° 0 mm 2 mps 723 mmHg 26%
    17:00 +29°C° 0 mm 3 mps 724 mmHg 26%
    18:00 +28°C° 0 mm 3 mps 724 mmHg 26%
    19:00 +28°C° 0 mm 3 mps 724 mmHg 26%
    20:00 +28°C° 0 mm 3 mps 724 mmHg 26%
    21:00 +27°C° 0 mm 4 mps 725 mmHg 26%
    22:00 +27°C° 0 mm 4 mps 725 mmHg 27%
    23:00 +26°C° 0 mm 4 mps 725 mmHg 27%

    29 September, Saturday

    Time Temperature Precipitation Wind Pressure Humidity
    00:00 +26°C° 0 mm 3 mps 725 mmHg 28%
    01:00 +25°C° 0 mm 3 mps 725 mmHg 28%
    02:00 +25°C° 0 mm 3 mps 724 mmHg 28%
    03:00 +25°C° 0 mm 3 mps 724 mmHg 28%
    04:00 +25°C° 0 mm 3 mps 724 mmHg 28%
    05:00 +25°C° 0 mm 3 mps 724 mmHg 28%
    06:00 +25°C° 0 mm 3 mps 724 mmHg 28%
    07:00 +25°C° 0 mm 3 mps 724 mmHg 27%
    08:00 +26°C° 0 mm 3 mps 725 mmHg 26%
    09:00 +27°C° 0 mm 3 mps 725 mmHg 24%
    10:00 +29°C° 0 mm 3 mps 725 mmHg 22%
    11:00 +30°C° 0 mm 2 mps 725 mmHg 22%
    12:00 +31°C° 0 mm 2 mps 724 mmHg 22%
    13:00 +31°C° 0 mm 1 mps 724 mmHg 22%
    14:00 +32°C° 0 mm 1 mps 724 mmHg 22%
    15:00 +32°C° 0 mm 1 mps 724 mmHg 22%
    16:00 +33°C° 0 mm 1 mps 723 mmHg 22%
    17:00 +32°C° 0 mm 2 mps 724 mmHg 22%
    18:00 +33°C° 0 mm 3 mps 724 mmHg 22%
    19:00 +33°C° 0 mm 3 mps 724 mmHg 23%
    20:00 +32°C° 0 mm 4 mps 724 mmHg 23%
    21:00 +32°C° 0 mm 4 mps 725 mmHg 24%
    22:00 +30°C° 0 mm 4 mps 725 mmHg 24%
    23:00 +29°C° 0 mm 4 mps 725 mmHg 24%

    30 September, Sunday

    Time Temperature Precipitation Wind Pressure Humidity
    00:00 +29°C° 0 mm 4 mps 724 mmHg 24%
    01:00 +28°C° 0 mm 4 mps 724 mmHg 24%
    02:00 +28°C° 0 mm 4 mps 724 mmHg 25%
    03:00 +27°C° 0 mm 4 mps 724 mmHg 25%
    04:00 +27°C° 0 mm 4 mps 724 mmHg 25%
    05:00 +27°C° 0 mm 4 mps 724 mmHg 25%
    06:00 +27°C° 0 mm 5 mps 724 mmHg 25%
    07:00 +27°C° 0 mm 5 mps 724 mmHg 25%
    08:00 +28°C° 0 mm 5 mps 725 mmHg 24%
    09:00 +30°C° 0 mm 5 mps 725 mmHg 23%
    10:00 +33°C° 0 mm 5 mps 725 mmHg 21%
    11:00 +34°C° 0 mm 4 mps 725 mmHg 21%
    12:00 +35°C° 0 mm 3 mps 724 mmHg 21%
    13:00 +35°C° 0 mm 2 mps 724 mmHg 21%
    14:00 +36°C° 0 mm 2 mps 724 mmHg 21%
    15:00 +36°C° 0 mm 2 mps 723 mmHg 20%
    16:00 +35°C° 0 mm 1 mps 723 mmHg 20%
    17:00 +36°C° 0 mm 2 mps 723 mmHg 20%
    18:00 +35°C° 0 mm 2 mps 724 mmHg 21%
    19:00 +35°C° 0 mm 3 mps 724 mmHg 22%
    20:00 +34°C° 0 mm 3 mps 724 mmHg 23%
    21:00 +34°C° 0 mm 4 mps 724 mmHg 23%
    22:00 +33°C° 0 mm 4 mps 724 mmHg 24%
    23:00 +33°C° 0 mm 4 mps 724 mmHg 25%

    1 October, Monday

    Time Temperature Precipitation Wind Pressure Humidity
    00:00 +31°C° 0 mm 3 mps 724 mmHg 25%
    01:00 +31°C° 0 mm 3 mps 723 mmHg 26%
    02:00 +30°C° 0 mm 3 mps 723 mmHg 26%
    03:00 +30°C° 0 mm 3 mps 723 mmHg 27%
    04:00 +29°C° 0 mm 3 mps 723 mmHg 28%
    05:00 +29°C° 0 mm 3 mps 723 mmHg 28%
    06:00 +29°C° 0 mm 3 mps 723 mmHg 28%
    07:00 +29°C° 0 mm 3 mps 723 mmHg 28%
    08:00 +32°C° 0 mm 4 mps 723 mmHg 25%
    09:00 +33°C° 0 mm 5 mps 724 mmHg 22%
    10:00 +35°C° 0 mm 5 mps 724 mmHg 20%
    11:00 +36°C° 0 mm 5 mps 723 mmHg 19%
    12:00 +37°C° 0 mm 4 mps 723 mmHg 18%
    13:00 +38°C° 0 mm 4 mps 722 mmHg 17%
    14:00 +38°C° 0 mm 3 mps 722 mmHg 17%
    15:00 +38°C° 0 mm 3 mps 722 mmHg 16%
    16:00 +39°C° 0 mm 2 mps 721 mmHg 16%
    17:00 +38°C° 0 mm 2 mps 721 mmHg 17%
    18:00 +38°C° 0 mm 2 mps 721 mmHg 18%
    19:00 +37°C° 0 mm 2 mps 722 mmHg 19%
    20:00 +36°C° 0 mm 3 mps 722 mmHg 20%
    21:00 +35°C° 0 mm 3 mps 722 mmHg 21%
    22:00 +35°C° 0 mm 3 mps 722 mmHg 22%
    23:00 +34°C° 0.1 mm 3 mps 722 mmHg 23%
    Show more